MOLNIYA 1-29

Last updated on Nov. 15, 2019, 4:21 a.m. UTC

1 07780U 75036A   19317.14127903  .00000011  00000-0 -38166-3 0  9991
2 07780  62.7289 345.8751 7450540 286.5491   9.2299  2.00646907326614
UTC
Height (km)
Latitude
Longitude
Inclination
Orbital Period
UTC large
Height (km)
Speed (km/s)
/
Latitude / Longitude
Inclination (degrees)
Orbital Period (minutes)
Azimuth
Elevation
Range (km)
Doppler Factor
iOS Compass Heading
iOS Angle

Next 30 passes for location: Hong Kong

Rise time Rise Azimuth (degrees) Set time Set Azimuth (degrees) Duration Max altitude (degrees)

No matching passes for this satellites